This demonstration page uses our WeatherBlox Daily Observations layout. Learn more.

Left ArrowRight Arrow

41.12389, -100.76542

Hourly Observations for March 10, 2020

Temp ( °F °C ) Dew Point ( °F °C ) Humidity (%) Winds ( mph kmh ) Pressure ( in mb ) Visibility ( mi km ) Precip ( " mm )
12:53 am 00:53 Clear 30 -1.1 28 -2.2 92 92 ESE 5 7 30.23 1024 10 16 0.00 0.00
1:53 am 01:53 Clear 31 -0.6 28 -2.2 89 89 ESE 7 11 30.23 1024 10 16 0.00 0.00
2:35 am 02:35 Cloudy 32 0 29 -1.7 88 88 VRB 3 6 30.29 1026 10 16 0.00 0.00
2:48 am 02:48 Cloudy 32 0 28 -2 87 87 E 5 7 30.28 1026 10 16 0.00 0.00
2:53 am 02:53 Cloudy 31 -0.6 28 -2.2 89 89 ESE 5 7 30.22 1024 10 16 0.00 0.00
3:01 am 03:01 Cloudy 31 -0.6 28 -2.2 89 89 SE 6 9 30.28 1025 10 16 0.00 0.00
3:53 am 03:53 Clear 30 -1.1 27 -2.8 88 88 ESE 5 7 30.21 1023 10 16 0.00 0.00
4:46 am 04:46 Partly Cloudy 29 -1.7 27 -2.8 92 92 S 3 6 30.29 1026 9 14 0.00 0.00
4:53 am 04:53 Mostly Cloudy 29 -1.7 26 -3.3 89 89 SE 3 6 30.21 1023 9 14 0.00 0.00
5:02 am 05:02 Mostly Cloudy with Mist and Fog 29 -1.7 25 -3.9 85 85 ESE 3 6 30.29 1026 4 6 0.00 0.00
5:05 am 05:05 Cloudy with Mist and Fog 29 -1.7 26 -3.3 89 89 SE 3 6 30.29 1026 2 3 0.00 0.00
5:09 am 05:09 Mostly Cloudy with Mist and Fog 29 -1.7 27 -2.8 92 92 SE 5 7 30.29 1026 1 1 0.00 0.00
5:18 am 05:18 Mostly Cloudy with Freezing Fog 30 -1.1 28 -2.2 92 92 ESE 3 6 30.29 1026 1 1 0.00 0.00
5:29 am 05:29 Mostly Cloudy with Fog 32 0 29 -1.7 88 88 ESE 3 6 30.27 1025 0 0 0.00 0.00
5:53 am 05:53 Mostly Cloudy with Freezing Fog 31 -0.6 29 -1.7 92 92 SE 5 7 30.20 1023 0 0 0.00 0.00
6:00 am 06:00 Mostly Cloudy with Freezing Fog 31 -0.6 29 -1.7 92 92 SE 5 7 30.27 1025 1 1 0.00 0.00
6:45 am 06:45 Cloudy with Mist and Fog 30 -1.1 28 -2.2 92 92 ESE 6 9 30.27 1025 2 2 0.00 0.00
6:53 am 06:53 Mostly Cloudy with Mist and Fog 31 -0.6 28 -2.2 89 89 ESE 8 13 30.18 1022 1 2 0.00 0.00
7:06 am 07:06 Cloudy with Mist and Fog 30 -1.1 28 -2.2 92 92 SE 6 9 30.27 1025 2 3 0.00 0.00
7:14 am 07:14 Cloudy with Mist and Fog 31 -0.6 28 -2.2 89 89 SE 8 13 30.26 1025 3 5 0.00 0.00
7:17 am 07:17 Cloudy with Mist and Fog 31 -0.6 29 -1.7 92 92 ESE 8 13 30.25 1024 2 3 0.00 0.00
7:21 am 07:21 Mostly Cloudy with Mist and Fog 31 -0.6 29 -1.7 92 92 ESE 7 11 30.25 1024 1 1 0.00 0.00
7:28 am 07:28 Mostly Cloudy with Freezing Fog 31 -0.6 29 -1.7 92 92 SE 7 11 30.25 1024 1 1 0.00 0.00
7:35 am 07:35 Mostly Cloudy with Fog 32 0 29 -1.7 88 88 SE 7 11 30.24 1024 1 1 0.00 0.00
7:53 am 07:53 Mostly Cloudy with Fog 33 0.6 31 -0.6 92 92 SE 8 13 30.19 1022 1 1 0.00 0.00
8:05 am 08:05 Mostly Cloudy with Fog 33 0.6 31 -0.6 92 92 SSE 8 13 30.25 1024 0 0 0.00 0.00
8:53 am 08:53 Mostly Cloudy with Fog 33 0.6 32 0 96 96 SE 7 11 30.21 1023 0 0 0.00 0.00
9:11 am 09:11 Mostly Cloudy with Mist and Fog 33 0.6 33 0.6 100 100 SE 7 11 30.25 1024 1 1 0.00 0.00
9:24 am 09:24 Cloudy with Mist and Fog 35 1.7 34 1.1 96 96 E 3 6 30.25 1025 2 2 0.00 0.00
9:27 am 09:27 Cloudy with Mist and Fog 36 2.2 34 1.1 93 93 E 5 7 30.25 1024 3 5 0.00 0.00
9:53 am 09:53 Cloudy 37 2.8 35 1.7 93 93 NW 3 6 30.23 1024 10 16 0.00 0.00
10:02 am 10:02 Cloudy 37 2.8 35 1.7 93 93 Calm 30.25 1024 10 16 0.00 0.00
10:53 am 10:53 Cloudy 39 3.9 36 2.2 89 89 SSE 5 7 30.22 1023 10 16 0.00 0.00
11:53 am 11:53 Cloudy 47 8.3 41 5 80 80 S 7 11 30.18 1022 10 16 0.00 0.00
12:13 pm 12:13 Partly Cloudy 51 10.6 42 5.6 71 71 S 8 13 30.11 1020 10 16 0.00 0.00
12:53 pm 12:53 Sunny 54 12.2 41 5 62 62 SSW 12 19 30.14 1021 10 16 0.00 0.00
1:53 pm 13:53 Sunny 58 14.4 42 5.6 56 56 SSW 14 22 30.09 1019 10 16 0.00 0.00
2:53 pm 14:53 Sunny 60 15.6 42 5.6 52 52 SW 13 20 30.05 1018 10 16 0.00 0.00
3:53 pm 15:53 Sunny 62 16.7 41 5 46 46 WSW 7 11 30.01 1016 10 16 0.00 0.00
4:53 pm 16:53 Partly Cloudy 63 17.2 39 3.9 41 41 SW 9 15 30.00 1016 10 16 0.00 0.00
5:53 pm 17:53 Mostly Cloudy 62 16.7 32 0 32 32 NW 24 39 30.01 1016 10 16 0.00 0.00
6:53 pm 18:53 Cloudy 60 15.6 33 0.6 36 36 NW 28 44 30.04 1017 10 16 0.00 0.00
7:53 pm 19:53 Cloudy with Light Rain 59 15 35 1.7 41 41 WNW 25 41 30.04 1017 10 16 0.00 0.00
8:29 pm 20:29 Mostly Cloudy 53 11.7 37 2.8 55 55 NNE 14 22 30.02 1016 10 16 0.00 0.00
8:53 pm 20:53 Clear 47 8.3 37 2.8 69 69 NE 13 20 30.08 1019 10 16 0.00 0.00
9:53 pm 21:53 Clear 42 5.6 36 2.2 79 79 Calm 30.11 1020 10 16 0.00 0.00
10:53 pm 22:53 Clear 37 2.8 33 0.6 86 86 E 5 7 30.13 1020 10 16 0.00 0.00
11:53 pm 23:53 Clear 33 0.6 31 -0.6 92 92 E 5 7 30.12 1020 10 16 0.00 0.00

Powered by AerisWeather